Wind_Speed
14 12 11 11 10 10 11 11 10 9 9 8 6 4 3 2 3 4 5 6 8 8 10 10 10 10 11 11 11 12 12 11 9 8 7 6 6 5 4 3 3 2 2 2 3 3 2 2 1 1 1 2 2 2 2 3 3 5 6 7 8 9 11 11 11 10 10 10 10 10 10 10 10 10 10 10 10 11 11 12 12 11 9 8 6
13 12 12 12 11 11 11 11 10 9 8 6 4 3 2 4 5 6 7 9 9 10 11 10 9 9 10 9 10 10 10 9 8 7 7 6 5 4 3 2 1 1 1 1 1 1 2 1 1 1 2 2 2 2 2 3 4 5 6 7 8 9 9 10 9 9 10 11 11 11 10 10 10 9 9 9 9 10 10 10 10 10 9 9 8
13 12 12 11 11 11 10 9 9 7 5 3 2 3 5 6 7 7 8 9 9 10 11 9 8 8 9 8 7 8 7 6 7 7 7 6 4 3 2 1 1 0 0 0 0 0 1 1 2 2 3 2 2 2 2 3 4 5 6 7 7 8 8 8 8 9 10 11 11 11 11 11 11 10 10 9 9 9 9 9 9 9 9 10 10
12 11 11 11 10 9 9 8 7 5 3 1 3 5 6 6 6 7 7 8 10 11 10 8 8 7 8 9 7 6 5 5 6 7 6 6 5 2 1 1 1 1 1 1 1 1 2 2 2 3 3 3 2 2 2 3 4 5 6 6 7 7 7 7 8 9 10 10 11 11 11 11 11 10 10 10 9 8 8 9 10 10 11 11 12
10 10 10 10 9 8 8 7 5 3 1 2 3 4 5 5 5 6 7 9 11 11 8 7 6 6 6 9 9 7 6 5 5 6 6 5 4 2 3 3 2 2 2 2 2 2 3 3 3 3 3 3 2 2 2 3 4 4 5 5 6 6 7 7 8 9 10 10 11 11 11 11 10 10 9 9 9 9 9 9 10 11 12 13 13
9 10 10 9 8 7 6 5 3 2 1 2 3 4 4 4 5 5 7 9 10 9 8 6 5 6 6 9 9 8 8 7 6 6 5 5 3 2 3 3 3 3 3 2 2 3 3 3 3 3 2 2 2 2 2 3 3 4 4 5 5 6 7 7 8 9 10 10 11 11 11 11 10 10 9 9 9 9 10 10 11 12 12 13 14
9 10 9 8 6 5 4 3 2 2 2 2 3 4 4 4 5 7 8 8 8 7 6 5 4 7 6 7 10 10 10 9 8 8 6 5 4 2 1 1 2 4 4 3 3 3 3 3 3 2 2 1 1 2 2 3 3 3 4 4 5 6 7 8 9 9 10 11 11 11 11 12 11 11 10 10 10 10 11 11 12 13 13 14 14
9 9 8 7 6 5 4 3 3 3 3 3 4 5 4 4 6 8 8 8 7 7 5 4 3 5 6 6 8 10 10 11 11 10 8 7 6 3 2 1 1 2 4 4 4 4 4 3 3 3 2 2 2 2 2 2 3 3 4 5 6 7 8 8 9 10 11 12 12 12 12 12 12 12 12 12 12 12 12 12 13 14 14 15 15
9 8 8 7 6 5 4 4 5 4 3 4 5 5 5 5 6 6 8 8 8 8 5 3 3 4 6 6 7 9 10 10 10 10 10 9 8 6 4 3 3 3 2 4 5 4 4 3 2 2 2 1 2 2 2 3 4 4 5 5 6 7 8 9 9 10 11 12 13 13 13 13 13 13 13 13 13 13 13 13 14 14 15 16 16
8 7 7 8 8 7 6 5 5 4 4 5 5 5 5 6 6 5 7 8 8 9 6 2 2 3 6 7 7 8 8 8 9 10 11 10 9 7 5 5 4 4 4 4 4 3 3 2 1 1 0 1 3 3 4 4 5 5 6 6 7 7 8 9 10 11 12 13 14 14 14 15 15 15 15 15 15 15 15 15 15 16 16 16 17
6 6 7 8 8 8 7 6 5 5 5 5 4 5 5 5 5 5 6 6 7 9 6 2 4 4 6 7 6 6 7 7 8 9 11 11 11 9 7 7 6 6 6 6 5 4 3 3 3 3 3 3 4 5 5 6 6 7 8 8 9 9 10 11 11 12 13 14 15 15 16 17 17 17 17 17 17 16 16 16 16 17 17 17 17
7 8 8 8 9 10 9 7 6 5 5 4 4 4 4 3 4 5 5 5 6 7 5 3 5 7 6 7 5 5 7 8 9 10 10 11 12 12 11 9 8 7 7 8 8 7 5 5 5 5 6 5 6 7 7 8 8 9 9 10 10 11 12 13 13 14 14 15 16 17 18 18 19 19 19 19 19 19 18 17 17 18 18 18 18
8 9 9 9 10 12 10 8 7 6 5 4 4 3 2 2 2 4 5 7 8 7 5 2 4 6 4 5 6 6 6 7 9 10 9 10 11 13 13 13 12 11 9 9 10 9 8 6 6 7 7 8 8 8 9 9 10 11 12 12 13 13 14 14 15 16 16 17 17 17 18 20 21 21 20 20 20 20 20 19 18 18 19 19 18
8 9 10 11 12 12 10 8 7 6 5 4 4 3 1 1 2 2 5 8 8 7 7 4 1 2 2 2 5 6 7 7 9 10 10 11 12 13 14 15 16 15 13 12 12 11 10 8 7 7 7 7 8 8 9 10 10 12 13 14 15 15 15 15 16 16 17 17 17 17 18 19 20 20 20 19 19 20 20 19 18 18 19 19 19
9 9 10 12 12 10 9 7 7 7 5 5 5 3 1 2 3 3 4 7 8 7 7 5 2 1 1 1 2 3 5 7 8 11 13 14 15 15 16 16 16 16 16 16 14 13 12 10 9 8 7 8 8 8 10 11 11 13 14 15 16 16 15 15 15 16 17 17 17 18 18 18 19 19 18 18 18 18 18 18 18 18 19 19 19
10 10 10 11 10 9 8 8 8 7 5 5 5 3 1 1 3 4 4 7 7 7 7 7 4 1 1 0 0 2 2 4 6 9 10 13 16 16 16 16 16 15 15 17 16 15 13 12 11 9 9 9 9 9 10 12 13 13 15 16 16 16 15 14 14 15 16 17 18 18 18 18 18 17 16 16 16 16 16 16 17 17 18 19 19
12 11 10 10 9 8 8 8 9 8 6 5 5 3 2 2 3 4 4 6 7 7 7 9 8 4 2 0 1 1 2 3 5 5 4 5 10 14 16 17 16 15 15 16 16 16 15 14 13 12 11 11 11 11 11 12 13 14 15 16 16 15 13 12 13 14 15 16 17 18 19 19 18 17 15 15 15 15 15 16 17 17 17 18 18
14 12 11 10 9 9 9 8 8 8 7 6 5 3 3 2 2 3 3 4 6 7 7 8 10 8 4 2 1 1 3 2 2 3 4 5 7 7 12 16 17 17 17 17 17 17 16 15 14 13 13 13 14 14 13 12 13 14 16 16 15 13 11 10 11 13 14 15 16 18 19 19 19 18 16 15 15 16 16 17 17 18 18 18 17
16 14 13 11 10 10 10 9 7 8 8 7 5 4 3 2 1 2 2 3 4 7 8 7 8 8 7 5 4 3 1 1 1 1 2 4 9 9 3 7 11 15 17 17 18 17 16 17 16 15 15 16 16 16 15 14 14 15 16 16 14 10 9 9 11 13 14 15 16 17 18 19 19 19 19 18 18 18 18 18 18 19 18 18 17
18 16 14 12 11 10 10 10 8 7 8 7 6 5 4 2 1 0 1 2 3 5 7 8 8 8 8 7 7 7 8 6 3 3 2 1 6 8 7 5 3 7 11 14 15 16 16 17 16 14 13 13 12 12 13 13 13 14 15 14 12 9 10 10 12 15 15 15 16 17 18 19 19 19 20 20 21 21 21 20 19 19 18 17 16
18 18 16 14 12 11 11 10 9 8 8 7 6 6 4 4 3 1 1 0 2 3 5 7 8 9 9 9 8 8 9 10 9 6 4 3 2 4 6 7 6 6 5 5 7 8 10 10 9 8 7 8 8 8 9 9 10 11 12 12 10 10 11 11 13 16 17 16 17 18 19 20 21 21 21 21 21 22 21 21 19 19 19 17 16
17 19 18 15 13 12 11 11 10 9 9 9 7 7 6 5 4 3 2 1 1 1 3 4 5 7 8 9 10 9 8 8 9 8 5 4 2 2 5 6 5 7 5 1 1 2 3 3 3 3 5 6 6 6 7 8 8 9 10 11 11 12 13 12 14 16 17 17 18 20 21 22 23 23 23 22 20 20 20 20 19 18 19 18 17
17 19 18 16 14 13 12 12 11 10 10 9 8 7 7 6 5 5 3 2 1 1 1 1 2 4 6 7 9 9 7 5 7 7 5 4 3 2 4 4 3 5 6 3 1 2 2 2 2 3 5 6 5 5 7 8 9 10 11 12 12 13 13 13 14 17 18 19 20 22 22 22 23 23 23 22 19 18 18 19 19 17 18 19 18
19 19 19 17 15 15 14 13 12 11 10 9 8 7 7 6 6 5 4 3 3 2 2 1 1 1 5 6 6 6 4 4 5 6 6 4 3 1 2 3 2 3 6 5 3 3 2 4 5 3 4 4 4 5 6 7 9 11 13 13 13 13 13 13 14 17 18 20 21 21 21 22 22 21 20 19 17 16 16 18 19 18 17 17 18
21 21 19 18 17 16 14 14 14 13 11 10 9 7 7 6 6 6 5 4 4 3 3 2 1 1 3 4 4 4 3 3 3 5 5 4 3 3 2 2 1 2 5 6 6 4 2 6 6 3 2 3 5 7 7 8 9 11 13 13 13 12 12 13 15 17 18 19 20 20 21 22 20 19 17 17 17 16 16 17 19 19 17 17 17
23 21 19 18 18 16 14 13 14 14 12 11 10 8 7 7 7 7 6 6 6 5 4 3 2 2 2 2 3 3 2 2 3 4 5 4 3 2 1 2 2 2 4 5 6 4 3 7 7 3 3 4 8 10 10 9 8 10 12 13 14 12 12 14 16 16 17 18 19 19 20 21 20 19 19 18 16 16 16 17 19 19 19 18 16
22 20 18 18 18 16 14 13 13 13 13 12 11 9 9 9 8 8 7 7 7 6 6 5 3 3 3 2 3 3 3 3 3 4 4 4 3 2 1 2 2 3 4 4 5 5 5 8 7 5 7 9 11 12 11 9 9 10 12 13 14 13 13 15 15 16 17 17 17 18 20 20 21 23 22 19 17 16 16 16 17 19 19 19 17
22 20 18 18 19 17 15 14 13 13 13 12 11 10 10 10 9 8 8 8 7 7 7 6 6 5 4 4 4 3 3 3 4 3 3 4 4 3 3 2 1 2 4 4 4 3 5 9 8 8 11 13 13 12 10 9 9 10 12 13 14 14 14 15 16 16 17 16 16 17 20 21 23 24 21 19 18 17 15 15 16 18 18 18 17
22 21 19 19 19 17 16 15 14 13 13 12 12 11 11 11 10 9 9 9 9 8 8 7 7 6 6 5 4 3 2 3 3 3 2 2 3 4 5 4 0 0 1 2 3 3 4 8 8 9 14 15 13 12 10 10 11 12 13 14 14 15 15 16 17 16 16 16 17 17 19 21 22 23 20 19 18 17 16 17 17 17 17 17 17
22 22 20 20 20 18 17 16 16 15 15 14 13 12 12 12 11 11 10 10 10 9 9 8 7 7 7 6 5 4 3 2 3 3 3 2 3 4 4 4 3 3 2 2 3 3 5 8 9 10 14 15 14 13 12 12 13 14 14 14 15 16 16 16 16 16 16 16 16 17 18 20 22 23 22 22 20 18 19 19 18 17 16 17 18
22 22 21 21 21 20 18 17 17 17 16 15 14 13 13 13 12 12 10 10 10 9 8 8 7 7 7 7 6 4 4 4 4 4 5 4 4 4 4 4 5 6 6 4 2 4 7 10 12 12 13 14 14 14 14 14 14 15 15 16 16 16 16 16 16 15 15 15 15 16 17 20 23 24 24 23 21 20 20 20 18 17 16 16 17
22 22 22 21 21 21 20 19 18 17 17 16 15 13 13 13 13 12 11 10 10 10 9 8 7 7 7 7 6 5 4 4 5 6 7 7 7 7 7 7 6 7 8 7 5 7 11 11 12 12 12 13 13 14 15 15 15 16 17 17 16 15 15 15 14 14 14 14 14 15 18 21 24 25 25 24 22 20 20 19 18 16 15 15 15
22 21 22 21 21 21 20 20 19 18 17 17 15 14 14 13 12 12 11 11 11 11 10 9 8 8 8 8 8 7 5 6 6 7 8 8 8 8 7 7 7 7 8 8 8 8 11 11 11 11 10 12 13 13 15 17 17 16 17 17 16 14 14 14 15 16 17 16 15 16 20 24 26 26 25 23 21 19 18 17 16 14 13 13 13
21 21 21 21 20 20 20 20 19 18 18 17 16 15 15 14 13 12 12 12 12 11 11 10 9 8 9 9 9 8 7 7 7 7 8 7 7 7 6 5 6 5 7 9 8 8 10 12 11 10 10 12 13 13 16 18 17 16 15 15 14 13 14 15 16 18 19 17 16 18 23 26 27 26 23 20 19 19 19 18 17 15 14 13 13
22 21 21 21 20 20 20 20 20 19 18 17 16 16 16 15 15 14 13 12 12 11 11 11 10 9 10 10 10 9 8 9 9 9 8 8 8 7 6 5 5 5 6 9 9 9 10 12 11 11 12 12 13 14 17 17 15 13 13 13 13 14 14 15 17 18 18 17 17 20 24 26 27 24 20 18 19 19 19 19 19 17 16 15 14
23 22 22 22 22 21 21 21 20 20 19 18 18 17 17 16 16 15 13 12 12 12 12 12 11 9 9 9 9 9 9 10 11 11 10 10 9 7 6 6 7 8 8 9 10 10 11 11 12 13 13 13 14 16 17 17 14 12 13 13 15 16 15 16 17 17 17 17 18 21 24 26 25 21 18 17 18 18 17 18 20 20 18 16 15
24 23 22 23 23 23 22 22 21 21 20 20 19 19 18 17 16 16 15 14 13 13 12 12 11 10 9 9 8 8 9 11 11 11 11 10 9 7 8 8 9 10 10 10 10 10 11 12 13 14 13 13 16 17 17 17 16 15 15 15 16 17 18 18 18 19 19 19 19 21 25 26 23 19 17 16 17 17 17 18 20 21 19 18 16
25 24 23 23 23 23 23 23 22 22 21 21 20 20 19 18 18 18 17 16 14 14 13 13 12 12 11 10 9 8 10 11 11 11 11 10 10 10 10 10 9 9 10 10 10 10 11 12 13 14 13 14 16 18 17 17 18 17 17 18 18 18 19 20 21 22 21 20 19 22 25 25 21 18 17 16 15 16 18 19 20 20 19 19 17
26 26 24 23 23 23 23 23 23 22 22 21 21 21 20 19 19 19 19 18 16 15 14 14 13 13 12 12 11 10 11 11 11 11 11 11 12 12 12 11 11 11 11 12 11 11 12 12 12 12 13 14 16 17 17 17 17 16 16 19 21 20 21 22 24 23 21 20 21 23 25 23 19 17 17 15 14 17 20 19 18 17 17 18 17
27 27 26 25 24 24 23 23 23 23 22 21 21 21 21 20 19 19 19 18 17 17 16 15 14 13 13 13 12 12 12 13 13 12 11 12 13 13 13 13 13 13 13 13 13 12 12 11 11 12 13 15 16 16 17 17 17 17 16 17 20 21 22 23 23 21 20 20 23 25 25 22 20 19 17 14 15 19 20 19 16 15 15 16 16
28 27 27 27 26 25 25 24 23 23 22 22 21 21 21 21 20 19 19 19 18 18 17 16 15 14 14 14 14 14 14 14 14 13 13 12 12 12 12 12 13 14 14 14 13 13 12 11 12 13 13 15 16 16 16 16 16 17 16 15 17 20 23 23 22 18 17 20 24 25 24 21 20 19 17 16 18 20 20 17 15 14 14 15 14
29 28 28 28 28 27 26 25 24 24 24 23 22 22 21 21 21 21 20 20 19 19 19 17 17 16 16 16 15 14 14 14 13 13 12 12 12 12 13 13 13 14 14 14 14 14 13 12 12 13 12 14 15 15 16 16 16 15 15 15 17 20 22 22 20 17 17 20 22 24 23 20 19 19 18 18 20 20 18 16 15 14 15 15 14
29 28 29 29 29 29 27 27 26 25 25 24 23 22 22 22 23 22 22 21 20 20 20 19 19 18 17 17 16 15 15 14 13 12 12 12 12 13 13 13 13 13 13 13 14 14 13 12 12 11 11 13 15 16 15 14 14 14 14 15 16 18 18 17 16 17 19 19 19 21 22 19 17 19 19 19 19 19 17 15 15 15 15 14 13
29 29 30 30 30 30 29 29 28 26 26 24 23 22 22 22 23 23 22 21 21 21 21 20 21 20 19 18 17 17 15 14 13 12 11 10 9 9 10 11 11 11 11 11 12 13 14 13 12 12 12 13 14 14 12 12 12 12 13 13 13 14 14 13 14 17 19 17 16 19 20 18 17 20 20 19 19 17 14 15 17 16 15 15 13
23 25 28 29 29 30 29 29 29 28 27 25 23 22 22 22 22 23 23 22 22 23 23 22 22 21 20 20 19 17 14 14 13 12 11 11 10 10 11 10 10 9 9 9 10 13 14 13 12 11 10 12 13 11 8 8 10 11 12 12 12 11 12 12 14 16 17 15 15 17 17 17 19 21 20 19 18 14 13 16 19 17 16 17 16
13 14 17 20 24 26 27 27 27 27 27 26 23 23 23 22 22 22 23 23 23 23 24 24 23 22 21 21 19 17 14 13 12 12 12 12 11 11 9 8 8 7 8 8 9 11 12 11 9 8 7 8 10 10 7 6 9 10 11 12 12 10 10 10 12 13 13 14 14 13 13 17 21 21 20 20 17 12 14 18 19 18 19 20 19
9 10 10 10 12 16 19 22 23 24 25 25 24 24 24 24 23 23 24 23 23 23 23 23 23 22 22 21 20 18 14 12 10 10 10 10 10 10 9 7 7 7 8 8 8 9 9 8 8 8 7 7 8 10 9 9 10 10 10 10 10 9 9 10 11 12 12 12 13 12 12 17 21 21 21 20 15 11 16 20 19 20 22 21 19
12 13 14 13 12 11 13 16 19 21 22 22 23 24 24 24 24 24 25 25 24 24 23 22 21 22 22 21 19 17 15 13 12 11 11 11 10 10 9 7 7 6 6 6 6 6 7 8 8 9 9 9 10 10 10 9 9 8 8 9 8 8 10 11 10 12 13 11 13 15 15 17 19 19 19 18 14 11 16 21 21 21 23 21 18
17 17 17 19 18 16 15 16 18 19 19 19 20 22 23 24 24 25 25 26 26 26 26 24 21 20 21 21 19 18 17 15 14 13 12 12 11 10 9 8 7 7 6 6 6 6 5 6 6 6 7 8 7 6 6 6 7 7 8 8 7 8 10 9 8 11 12 11 13 17 16 15 17 18 17 17 13 10 14 21 22 22 22 19 18
18 18 18 20 20 20 19 19 19 20 19 17 17 18 20 21 22 23 25 25 26 27 27 25 22 20 19 20 20 20 18 16 14 13 12 12 11 11 11 10 9 9 8 8 7 6 5 4 3 2 2 2 1 2 3 4 5 5 6 7 7 7 8 7 7 8 8 12 15 17 14 12 15 17 17 17 11 8 13 20 22 22 22 19 17
15 17 18 19 21 23 24 24 22 19 17 16 15 16 17 18 19 20 21 22 23 24 24 22 20 18 19 19 20 19 17 16 14 13 12 11 10 10 10 11 11 10 10 9 8 7 5 4 2 1 2 3 3 3 3 4 5 6 9 10 10 9 8 8 9 7 5 11 18 16 10 11 15 16 16 14 7 6 15 21 20 20 21 19 17
Wind_Direction
154 156 158 158 159 156 152 156 159 161 162 159 164 171 194 239 277 296 307 313 316 318 317 305 283 272 266 261 258 256 258 261 262 260 274 292 279 258 248 249 244 249 255 250 254 264 278 308 347 18 30 36 33 27 12 355 343 336 331 327 325 325 327 326 325 328 332 332 329 327 325 322 320 320 322 323 326 332 338 343 346 353 1 357 340
154 155 156 155 156 155 154 159 162 164 165 165 176 207 260 287 299 311 319 322 325 328 326 311 278 264 262 260 261 259 255 254 256 257 268 285 275 248 238 236 231 238 253 262 268 277 284 317 25 51 63 64 58 43 19 3 350 340 336 334 334 335 338 340 344 350 351 350 347 346 346 344 343 341 341 339 337 340 345 349 356 6 12 8 358
156 155 155 155 156 157 159 165 168 170 173 179 223 286 301 308 315 322 328 330 332 331 327 309 275 264 261 258 259 255 250 249 251 255 264 278 268 233 213 204 182 175 228 283 321 356 3 40 63 83 91 90 80 47 22 4 355 351 347 345 347 350 353 354 358 359 356 355 353 353 355 355 355 355 356 354 351 349 352 356 358 3 5 4 358
157 158 158 159 159 161 166 172 173 177 193 259 302 311 313 316 324 330 333 334 332 328 321 299 281 280 265 254 256 253 253 256 253 255 260 269 263 221 155 131 108 87 80 59 70 67 60 68 87 105 106 99 81 47 26 13 7 3 0 359 1 2 1 358 356 354 352 350 348 349 353 354 354 356 357 356 353 351 351 351 350 353 357 355 350
161 165 164 161 161 163 170 175 176 184 239 312 317 318 317 323 335 336 334 330 327 327 321 298 286 289 266 247 250 255 256 258 257 259 257 260 258 209 137 102 83 70 71 72 74 75 80 93 108 116 109 96 73 51 31 22 17 12 11 9 6 1 354 350 347 346 345 344 343 344 345 347 348 349 350 350 347 345 342 341 340 345 349 348 345
167 167 163 162 164 169 177 180 185 215 267 305 322 327 323 331 345 336 327 325 325 330 327 307 273 265 259 242 244 252 253 255 259 259 251 248 243 194 144 108 87 71 70 81 90 95 104 117 125 123 110 90 61 40 21 11 9 8 9 3 356 349 344 340 338 337 337 337 337 339 340 340 341 341 341 340 338 336 334 333 333 336 339 341 340
168 168 168 172 178 188 197 204 226 247 251 274 306 317 319 329 335 323 322 325 324 335 341 324 272 248 247 239 241 249 253 255 259 259 253 244 227 191 182 128 104 90 79 84 100 109 118 127 126 118 101 79 46 26 10 358 349 345 343 340 335 332 333 331 329 327 327 329 330 331 333 335 335 335 336 334 332 331 330 329 329 330 332 335 336
173 178 185 192 202 209 217 236 237 229 238 275 289 297 306 310 315 316 322 328 328 349 1 337 301 250 238 238 240 244 251 256 258 258 254 247 235 217 234 251 181 130 98 93 103 110 113 116 114 103 87 66 40 22 12 359 348 340 333 328 324 321 322 321 321 321 320 321 322 324 326 329 330 331 332 331 330 329 328 327 326 327 328 331 333
184 193 203 208 212 213 223 232 223 223 253 277 283 292 297 295 303 311 320 325 333 354 2 323 308 263 234 227 235 242 248 254 258 257 252 249 244 232 228 230 228 219 158 120 118 114 110 109 107 103 77 37 10 3 359 356 349 342 336 331 325 320 317 315 316 316 316 316 316 318 321 323 326 327 328 329 328 327 326 326 325 326 327 329 331
199 210 216 215 213 215 221 215 209 232 268 274 276 286 292 299 305 307 316 324 336 350 352 304 265 261 231 221 236 245 247 254 257 253 249 250 250 245 241 235 238 244 229 187 158 146 136 138 161 202 279 316 319 326 330 334 336 337 334 329 325 320 318 317 316 315 315 315 314 315 318 320 321 322 324 324 324 325 325 326 325 325 326 328 329
213 222 219 216 216 215 207 194 207 241 264 269 272 278 287 306 311 314 318 322 338 347 346 304 244 239 224 217 233 247 239 241 249 254 255 257 258 256 252 245 245 248 244 230 212 205 202 205 225 242 255 275 292 301 307 313 316 323 324 322 321 319 320 319 317 317 316 315 314 314 315 318 319 319 320 320 320 320 321 323 324 324 324 326 328
213 221 221 221 216 207 197 197 222 242 248 256 262 270 285 312 324 332 327 328 353 356 347 300 239 233 229 219 236 260 245 236 245 260 266 265 264 261 260 256 252 252 252 247 240 236 235 238 249 258 262 269 283 290 294 299 302 307 310 312 314 316 318 319 319 319 318 317 315 314 314 315 317 317 317 317 316 316 317 319 320 321 321 322 325
210 216 218 217 206 199 202 216 229 230 234 238 237 244 272 327 354 355 347 354 8 10 5 354 219 224 231 228 244 256 246 245 256 266 270 271 270 267 265 262 260 261 261 257 252 249 248 254 265 273 276 280 286 289 290 294 297 301 304 306 308 310 313 316 318 320 321 320 318 317 316 316 317 317 317 315 314 313 313 315 317 318 319 319 322
205 209 207 202 199 201 211 226 225 219 225 224 221 218 216 7 21 13 3 8 13 17 17 25 136 201 197 243 266 264 256 255 259 261 264 269 271 271 269 269 271 271 268 264 261 257 255 258 267 279 288 292 293 293 293 294 299 303 305 307 307 307 310 313 316 320 322 323 322 321 320 321 320 320 318 315 313 312 312 314 315 316 316 316 319
197 194 195 198 203 212 220 224 216 209 215 216 212 205 151 43 41 32 17 18 22 29 28 30 50 158 155 350 298 294 280 267 258 255 257 262 264 268 271 272 275 275 271 266 262 261 260 260 266 276 289 296 299 301 300 301 305 309 310 311 311 310 310 312 315 319 323 325 326 326 325 325 324 322 319 315 315 315 314 316 316 317 315 315 316
195 189 194 205 213 223 223 216 207 203 214 219 214 203 153 75 59 48 23 17 22 36 46 48 54 128 157 334 35 44 321 288 288 273 265 264 262 263 267 268 269 270 269 266 263 264 265 264 267 274 284 292 301 305 307 310 311 314 316 318 317 314 312 314 317 321 324 327 330 331 330 330 330 327 321 319 319 319 320 321 321 320 318 316 315
202 198 203 212 220 227 222 213 207 208 217 215 210 203 167 125 72 52 27 17 19 37 65 67 63 75 112 143 33 27 247 284 326 312 304 294 276 264 255 255 260 264 268 269 267 266 267 268 269 274 282 289 297 300 305 312 315 318 322 325 323 319 316 319 323 325 327 330 332 335 336 336 336 333 329 327 326 325 326 327 326 324 321 318 314
208 206 208 216 225 230 223 216 212 212 214 206 204 202 175 154 88 57 34 23 23 39 63 72 70 68 74 98 61 293 251 286 355 321 343 8 355 303 254 246 251 258 264 269 270 269 272 275 276 280 287 292 294 293 296 303 313 319 322 326 328 325 325 328 332 332 331 333 336 339 341 340 340 339 337 334 332 332 332 333 332 329 325 322 318
211 211 212 215 223 229 224 221 218 211 208 204 204 198 180 172 129 69 39 24 24 37 44 52 64 62 63 75 72 71 36 348 166 292 331 357 19 24 337 264 257 259 263 267 269 269 274 278 281 288 294 299 299 294 290 292 307 317 317 322 328 333 337 339 342 342 338 336 338 342 343 342 342 342 342 340 340 340 339 339 338 335 332 329 326
213 214 214 213 219 227 226 225 225 216 211 206 202 202 201 198 184 41 7 6 14 31 35 37 44 42 49 64 66 71 67 61 80 87 112 327 1 23 33 12 313 286 280 275 272 270 276 282 286 292 299 308 311 302 294 294 305 315 316 323 331 339 343 341 344 346 342 340 341 342 342 342 343 343 343 342 344 345 344 345 345 343 341 336 332
215 217 217 216 222 229 229 229 227 222 219 215 211 216 225 222 216 244 284 348 14 24 29 33 38 36 38 47 55 66 66 63 68 68 83 91 355 343 12 31 41 27 348 296 282 277 282 287 289 296 307 326 330 318 319 320 320 321 326 335 342 344 344 340 341 344 343 342 342 343 342 340 340 340 341 340 341 344 345 347 348 348 347 343 339
214 216 216 217 224 230 233 232 227 222 221 221 222 226 229 225 226 238 231 182 32 7 15 25 32 34 34 37 44 51 50 49 53 51 54 73 71 343 354 19 32 30 32 16 287 310 302 294 289 305 325 345 348 345 357 359 347 338 339 342 343 344 345 342 343 345 345 345 345 344 343 340 337 335 336 336 336 338 341 343 347 349 350 349 346
211 210 212 217 225 230 233 234 227 223 223 222 224 231 233 229 237 243 235 224 229 274 324 2 19 34 38 37 43 50 51 46 45 46 45 51 58 5 354 11 5 11 25 41 32 9 356 345 336 346 359 9 20 16 10 2 352 348 344 339 337 341 344 342 343 345 345 347 347 346 346 344 340 337 337 337 335 334 335 338 343 348 350 352 351
210 208 211 217 225 227 232 232 225 223 225 222 223 233 236 235 246 249 245 255 257 259 270 262 254 42 45 42 44 49 53 49 43 39 37 43 49 19 358 10 343 355 15 24 13 357 9 4 343 346 30 46 42 17 2 357 355 353 347 338 335 339 343 342 341 343 346 350 352 354 355 354 352 349 348 348 344 338 334 333 338 345 347 351 353
211 211 214 219 222 224 230 229 223 223 224 222 225 234 238 240 248 250 250 263 265 266 274 272 274 10 38 40 37 45 57 48 31 21 21 28 34 32 21 1 314 339 6 10 2 346 355 9 354 346 54 57 16 0 354 354 358 357 352 346 344 344 346 345 345 346 349 353 358 2 4 3 1 360 359 357 352 346 339 333 334 340 343 345 350
211 213 218 221 221 222 229 229 223 224 224 222 227 234 240 244 248 251 254 261 263 265 277 279 286 325 353 5 10 21 31 15 355 355 3 5 12 32 25 351 316 328 358 1 1 355 343 358 4 9 14 350 339 338 337 339 345 349 349 348 350 350 347 345 348 351 352 354 0 5 7 8 6 3 0 356 351 349 346 339 334 336 339 340 342
212 217 223 222 221 221 228 230 225 224 224 224 229 234 239 242 245 250 249 252 257 260 268 279 287 294 298 307 338 355 353 351 343 333 334 328 328 348 29 27 359 331 344 348 352 354 346 351 1 7 359 346 336 331 327 328 331 337 341 343 345 345 341 341 347 354 355 355 360 6 7 6 1 357 355 353 350 348 347 345 339 336 336 336 335
216 221 226 223 221 224 228 229 226 227 227 228 233 236 239 240 242 245 242 241 251 258 265 276 286 289 289 291 306 331 352 1 350 335 318 308 317 332 344 21 67 340 340 340 337 336 341 347 351 352 353 349 341 336 330 329 332 335 337 337 337 339 340 342 347 353 356 357 1 3 1 357 352 350 352 355 355 351 352 355 350 342 339 340 337
220 224 227 224 223 228 230 227 228 233 233 234 238 238 239 241 243 243 241 242 249 258 266 272 280 288 289 282 284 305 334 354 345 324 299 301 319 330 331 333 324 194 329 321 307 287 320 336 335 337 345 348 345 343 341 340 342 342 339 335 335 338 340 343 345 346 350 355 355 352 348 348 350 353 357 1 2 360 0 2 357 349 347 349 346
222 224 226 225 226 229 231 228 230 236 238 238 241 241 242 244 246 244 243 248 254 258 265 270 279 290 291 280 271 277 287 306 318 299 276 282 303 315 326 317 291 260 230 243 283 282 304 322 325 330 340 346 349 352 356 356 356 354 348 343 341 341 340 342 344 344 345 349 348 343 341 346 353 356 358 358 360 359 357 356 352 348 349 350 348
224 226 227 228 229 231 231 232 235 238 239 240 242 243 245 248 247 245 245 252 261 262 264 272 281 290 291 279 265 264 272 281 292 290 283 284 292 304 320 316 297 280 267 242 237 288 301 313 322 333 341 346 351 358 2 3 3 359 355 351 347 345 344 344 346 347 347 349 348 344 345 352 355 355 353 351 349 348 348 348 346 344 344 343 343
229 230 231 231 232 232 234 236 238 239 239 240 242 242 245 250 248 245 248 257 266 268 268 272 278 287 291 279 262 257 268 274 278 288 288 286 285 290 302 311 303 287 274 248 229 276 299 313 325 338 347 347 351 359 359 358 357 355 356 356 353 351 353 354 357 359 0 358 353 351 353 356 356 353 349 346 345 344 344 345 345 344 341 338 337
231 233 234 233 233 234 235 237 238 240 239 240 240 238 240 245 245 246 249 255 261 265 267 271 277 282 283 276 262 255 266 271 271 285 291 287 285 284 287 300 301 288 274 256 247 275 300 316 328 338 346 345 348 356 354 352 352 354 359 5 6 9 10 9 8 6 4 2 358 358 359 359 357 351 348 349 352 355 356 355 354 353 348 341 339
231 234 234 233 233 235 236 237 239 239 239 238 236 236 238 240 241 244 248 251 254 257 258 264 274 280 277 273 265 257 264 268 267 281 290 288 294 289 279 288 298 291 276 267 260 268 291 309 321 332 342 343 342 347 349 349 351 356 4 10 12 13 9 2 358 356 357 360 360 0 1 360 357 351 350 355 1 5 7 5 3 1 357 351 348
235 237 236 235 235 236 236 236 238 238 236 235 234 236 238 239 241 244 246 249 250 251 252 255 265 276 276 276 272 263 263 266 267 276 283 289 299 294 272 272 285 284 277 273 268 267 281 298 311 322 332 336 335 339 343 345 348 355 2 3 360 358 353 347 344 344 350 356 358 359 0 360 357 352 352 360 5 6 10 13 15 12 8 2 355
238 239 239 238 238 239 237 236 237 237 235 235 234 236 238 241 244 245 246 247 247 249 252 252 256 266 272 275 275 270 269 272 274 277 281 288 295 288 271 274 283 283 281 278 278 276 276 285 299 312 323 327 329 334 339 341 344 349 351 349 347 349 349 345 342 343 348 353 355 357 359 358 356 353 354 0 4 8 12 18 18 14 11 8 1
240 240 238 237 238 239 239 239 239 239 238 238 237 237 240 242 245 248 248 247 248 250 253 253 253 259 265 268 269 269 274 280 282 282 285 288 288 284 281 286 290 288 283 281 284 282 277 280 292 305 315 319 324 330 336 339 341 344 345 344 343 346 346 345 346 348 350 352 353 354 355 356 355 356 359 2 5 11 15 13 10 8 7 6 4
239 240 237 236 236 238 241 242 242 242 242 242 241 241 241 243 246 248 247 247 249 252 254 255 256 259 262 265 266 264 265 273 279 280 283 287 287 284 283 286 290 288 280 277 281 281 279 283 289 298 308 315 321 327 332 336 337 339 342 341 339 342 343 342 344 346 349 351 351 351 353 353 354 357 1 2 2 7 8 3 1 3 3 2 2
238 238 237 237 237 238 240 241 241 243 243 243 242 240 241 244 247 248 246 245 248 251 254 256 257 258 260 262 263 258 254 260 268 273 279 284 284 282 280 282 287 288 284 280 278 277 278 281 284 291 304 313 317 322 328 334 336 340 343 338 333 337 341 340 341 343 346 348 346 347 350 352 352 355 359 360 358 358 358 355 356 0 3 4 3
238 237 236 237 239 239 240 240 240 240 240 240 240 240 242 244 245 245 245 245 247 251 255 255 252 253 256 257 257 255 255 258 262 266 271 275 277 277 275 277 281 284 287 285 281 276 273 274 282 294 304 309 314 321 328 335 338 340 343 335 327 331 336 337 340 344 346 346 342 343 349 351 349 353 358 359 358 357 356 355 356 360 2 3 3
237 239 240 240 241 241 240 240 240 239 239 239 239 240 242 242 242 244 245 246 248 252 254 253 249 249 252 254 254 258 261 263 264 265 266 268 272 275 275 276 279 281 284 284 279 272 268 271 286 299 306 309 317 325 328 333 335 334 338 336 328 330 335 336 342 349 348 343 339 339 347 351 350 353 359 358 357 359 360 0 2 3 2 359 357
238 240 241 241 241 243 242 241 241 240 240 242 242 242 243 244 245 245 246 247 248 251 254 252 250 252 255 255 257 261 264 264 264 263 263 265 269 272 277 280 282 283 283 281 276 269 265 274 291 303 305 308 317 324 323 328 334 334 338 338 331 333 337 337 339 346 347 343 338 337 343 351 353 353 356 356 355 359 6 12 12 6 359 353 350
243 243 242 240 240 241 242 243 243 243 243 244 245 246 248 248 248 247 247 248 248 250 253 252 253 256 256 256 256 257 258 259 260 262 264 266 267 268 271 274 278 282 280 275 271 267 267 276 290 297 297 303 315 323 325 330 336 337 339 339 335 336 338 335 330 334 341 345 340 334 339 353 358 352 353 355 355 0 13 19 15 6 1 359 360
244 244 242 241 240 239 239 241 243 244 245 247 248 250 250 249 248 247 247 248 248 249 250 252 255 258 258 257 255 255 257 259 262 263 262 261 263 266 267 268 275 282 280 272 267 266 271 279 287 291 297 305 312 320 329 334 336 338 341 343 343 339 336 329 321 325 335 345 341 332 338 355 0 352 354 360 360 5 18 20 14 13 15 17 15
240 240 237 236 236 236 236 238 241 243 244 246 248 250 250 249 248 247 247 249 250 248 248 250 253 256 258 258 257 258 261 259 255 251 247 249 258 268 269 269 275 281 280 271 261 262 270 278 284 290 304 313 313 316 329 336 334 337 339 339 341 340 333 328 324 326 335 344 342 336 339 353 359 354 358 4 5 12 22 16 15 21 23 21 16
227 228 231 233 233 233 234 236 240 243 244 246 248 249 249 249 248 246 246 250 250 249 249 250 251 254 257 257 259 262 260 251 243 239 241 247 257 262 261 262 269 274 277 273 263 262 264 265 270 281 296 309 309 310 321 326 324 327 328 330 336 336 330 330 328 329 337 347 351 346 341 350 358 356 357 3 8 21 25 17 18 24 21 20 20
219 211 215 225 231 233 233 234 237 241 243 246 248 248 249 249 247 245 245 247 249 250 252 252 252 254 255 257 260 259 249 239 237 237 239 244 248 248 250 258 270 274 275 275 270 264 258 253 264 282 290 291 295 301 306 309 312 318 323 327 332 330 330 337 338 337 344 357 7 5 346 346 356 356 354 360 9 25 25 19 20 22 18 20 25
235 224 215 217 220 224 229 232 234 237 240 243 245 245 245 245 244 244 244 244 246 248 251 252 252 254 254 255 256 248 236 234 238 236 236 240 243 247 251 257 264 265 263 261 259 261 265 270 277 284 287 287 293 300 304 306 312 319 322 324 328 333 341 351 349 344 351 7 18 11 350 340 352 356 352 356 7 22 19 16 19 20 17 21 28
234 232 226 225 225 224 227 229 231 233 236 239 241 242 242 241 242 242 243 243 245 247 249 251 255 257 253 248 243 236 230 232 233 233 236 241 246 251 255 253 247 244 240 236 239 251 271 288 292 287 285 286 293 302 308 318 325 325 326 330 339 349 356 1 347 339 356 18 14 359 344 337 353 1 354 354 6 18 11 11 17 17 15 23 33
231 236 237 237 236 236 238 239 238 239 241 243 244 245 245 244 244 244 245 247 248 249 250 252 255 253 243 236 232 229 229 229 229 231 237 242 247 252 254 249 235 224 222 225 234 247 264 286 290 277 283 307 351 356 346 349 345 343 355 6 12 14 16 14 350 337 6 27 6 346 337 348 5 7 356 351 2 16 8 12 17 15 16 26 35
236 240 243 244 244 244 246 246 244 244 248 253 256 254 250 248 248 248 249 250 251 251 252 251 248 237 225 223 223 222 224 225 225 230 235 240 248 250 249 245 233 221 221 227 236 247 259 272 272 205 121 96 86 75 64 57 54 52 49 46 43 40 39 32 16 5 18 19 4 348 339 1 14 16 8 1 357 351 2 13 19 18 22 30 32
Height
852 853 853 854 855 855 855 856 857 857 858 858 859 859 859 859 859 859 859 859 859 858 858 857 857 856 856 856 856 856 855 855 855 855 855 854 854 854 854 853 853 853 853 854 854 855 855 855 854 854 854 854 854 854 854 853 853 853 852 852 851 850 849 848 847 846 845 844 844 843 843 842 841 840 839 838 838 837 837 837 837 837 838 837 836
852 853 854 854 855 855 856 857 857 858 859 859 859 859 859 859 859 859 859 859 859 858 857 857 856 856 856 856 855 855 855 855 855 855 855 855 854 854 854 853 853 853 854 854 854 854 854 854 854 854 854 854 854 854 853 853 853 853 852 852 851 850 849 848 847 846 845 844 843 843 842 842 841 840 839 838 837 837 837 836 836 836 836 836 835
853 854 854 855 855 856 857 857 858 858 859 859 860 860 860 860 859 859 859 859 858 858 857 856 856 856 856 856 855 855 855 855 855 855 855 855 854 854 854 854 854 854 854 854 854 854 854 854 854 854 854 854 854 854 853 853 853 853 852 852 851 850 849 848 847 846 845 844 844 843 842 842 841 840 839 838 837 837 836 836 836 836 835 835 834
854 854 855 856 856 857 858 858 859 859 859 860 860 860 860 860 860 860 859 859 858 857 857 856 856 856 855 855 855 855 854 854 855 855 855 855 855 854 854 854 854 854 854 854 854 854 854 854 854 854 854 854 854 853 853 853 853 852 852 851 851 850 849 849 848 847 846 845 844 843 842 842 841 840 839 838 838 837 836 836 836 835 834 834 832
855 856 856 857 857 858 859 859 859 859 860 860 860 860 860 860 860 860 859 859 858 857 856 855 855 855 855 855 855 854 854 854 855 855 855 855 855 855 855 855 855 855 855 854 854 854 854 854 854 854 854 854 853 853 853 853 852 852 852 851 851 850 850 849 848 847 846 845 844 843 842 841 841 840 839 839 838 837 836 835 835 834 833 832 831
856 856 857 858 858 859 859 859 860 860 860 860 860 860 860 860 860 859 859 859 858 857 856 855 855 854 854 854 854 854 854 854 855 855 856 856 856 856 855 855 855 855 855 855 855 854 854 854 854 854 854 854 853 853 853 853 852 852 852 851 851 850 850 849 848 847 846 845 843 842 842 841 841 840 839 838 837 837 836 835 834 833 832 831 830
856 857 858 858 859 859 859 859 860 860 860 860 861 861 860 860 860 860 859 859 858 857 856 855 854 854 854 854 854 854 854 854 855 855 856 856 856 856 856 856 856 856 855 855 855 854 854 854 854 854 854 854 854 853 853 853 853 852 852 851 851 850 849 849 848 847 846 844 843 842 841 840 840 839 838 837 837 836 835 834 833 832 831 830 829
856 857 858 858 859 859 859 860 860 860 860 861 861 861 861 860 860 860 859 859 858 857 856 855 854 854 854 854 854 854 854 854 855 855 856 856 856 856 856 856 856 856 855 855 855 855 855 855 855 854 854 854 854 854 853 853 853 852 852 851 851 850 849 848 847 847 846 844 843 842 841 840 839 838 837 837 836 835 834 833 832 830 830 829 828
857 857 858 858 859 859 860 860 860 860 861 861 861 861 861 861 860 860 859 858 858 857 856 855 855 854 854 854 854 854 854 854 855 855 856 856 856 856 856 856 856 856 856 855 855 855 855 855 855 855 855 855 854 854 854 853 853 852 852 851 850 850 849 848 847 846 845 844 843 841 840 839 838 838 837 836 835 834 833 832 830 829 828 827 826
857 857 857 858 859 859 860 860 861 861 861 861 861 861 861 861 861 860 859 859 858 857 856 855 855 854 854 854 854 854 854 854 855 855 855 855 855 856 856 856 856 856 856 856 855 855 855 855 855 855 855 855 854 854 854 853 853 852 852 851 850 850 849 848 847 846 845 844 843 841 840 839 838 837 836 835 834 833 832 831 829 828 827 826 824
857 857 857 858 859 860 860 860 861 861 861 861 861 861 861 861 861 860 859 859 858 856 856 855 855 855 855 855 855 855 855 855 855 855 855 855 855 855 856 856 856 856 856 856 856 855 855 855 855 855 855 855 854 854 854 853 852 852 852 851 850 849 849 848 846 845 845 843 842 841 840 838 837 836 835 834 833 832 831 830 829 827 826 825 823
857 857 858 858 859 860 860 861 861 861 861 861 861 861 861 861 861 860 859 859 858 856 856 855 855 855 855 856 856 856 855 855 855 855 855 854 854 855 855 856 856 856 856 856 856 855 855 855 855 855 855 855 855 854 854 853 853 852 851 851 850 849 848 847 846 845 844 843 842 841 839 838 837 836 834 833 832 831 830 829 828 826 825 824 822
857 857 858 858 859 860 860 861 861 861 861 861 862 862 861 861 861 860 859 858 858 857 856 855 855 855 856 856 856 856 856 856 855 855 854 854 854 854 855 855 855 855 856 856 856 855 855 855 855 855 855 855 854 854 853 853 852 852 851 851 850 849 848 847 845 844 843 842 841 840 839 838 836 835 834 833 831 830 829 829 827 826 824 823 822
857 857 858 858 859 859 860 860 860 861 861 861 862 862 861 861 861 860 860 859 858 857 857 856 855 856 856 856 857 856 856 855 855 855 854 854 854 853 854 854 854 854 855 855 855 855 855 855 855 855 855 855 854 854 853 853 852 851 851 850 849 848 847 846 845 844 843 842 841 840 838 837 836 834 833 831 830 830 828 827 827 825 823 822 821
857 857 858 858 859 859 859 860 860 860 861 861 861 861 861 861 861 861 860 860 859 858 858 857 856 857 857 858 859 858 858 855 854 855 854 853 853 853 853 853 853 853 854 854 854 854 855 855 855 854 854 854 854 853 853 852 852 851 850 849 849 848 847 846 844 843 842 841 840 839 838 836 835 833 832 830 829 828 827 826 825 824 822 821 820
857 858 858 859 859 859 859 859 860 860 861 861 861 861 861 861 861 861 860 860 860 859 858 858 857 857 858 860 860 861 862 858 854 854 853 853 853 852 852 852 852 853 853 853 853 854 854 855 854 854 854 853 853 853 852 852 851 851 850 849 848 847 846 845 844 843 841 840 839 838 837 835 834 832 831 829 828 827 826 825 824 823 822 820 818
857 857 858 858 859 859 859 859 860 860 860 861 861 861 861 861 861 861 861 861 860 860 859 858 858 858 858 859 861 863 863 858 855 855 853 852 852 851 851 851 852 852 852 852 853 853 854 854 854 854 853 853 853 852 852 851 851 850 849 848 847 846 845 844 843 842 841 839 838 837 836 834 833 832 830 829 827 826 825 824 823 822 821 819 817
856 857 857 858 858 859 859 859 860 860 860 860 861 861 861 861 861 861 861 861 861 860 859 859 858 858 858 858 859 861 859 857 858 858 854 852 851 850 850 850 851 852 852 852 852 853 853 853 853 853 853 852 852 852 851 851 850 850 849 848 846 845 844 843 842 841 840 839 838 836 835 834 832 831 830 828 827 826 825 824 822 821 820 818 816
855 856 857 857 858 858 859 859 859 860 860 860 861 861 861 861 861 861 861 861 861 860 860 859 859 859 859 858 857 857 857 857 858 859 858 855 851 850 850 850 850 851 851 852 852 852 853 853 853 852 852 851 851 851 850 850 850 849 848 847 846 845 844 843 842 841 840 838 837 836 835 833 832 830 829 828 826 825 824 823 821 820 819 817 815
855 856 856 857 858 858 859 859 859 860 860 860 860 861 861 861 861 861 861 861 861 861 860 860 859 859 859 858 858 858 857 857 856 856 858 858 855 851 851 850 851 851 851 851 852 852 852 852 852 852 851 851 850 849 849 849 849 848 847 846 845 844 843 842 841 840 839 838 837 835 834 833 831 830 828 827 826 825 823 822 821 819 818 816 815
854 855 856 857 857 858 858 858 859 859 860 860 860 860 861 861 861 861 861 861 861 861 861 860 860 860 859 858 858 858 857 857 856 855 855 858 858 854 852 852 852 852 852 851 852 852 852 852 852 851 851 850 849 849 848 848 848 847 847 845 844 843 842 842 841 840 839 837 836 835 833 832 831 829 828 827 825 824 823 822 820 819 817 816 814
853 854 855 856 856 857 857 858 858 859 859 859 860 860 860 860 861 861 861 861 861 861 861 861 860 860 859 858 858 857 857 857 856 856 855 856 857 856 854 854 853 853 852 852 852 852 852 852 851 851 851 850 849 848 848 848 847 847 846 845 844 843 842 841 840 839 838 837 836 834 833 831 830 828 827 826 824 823 822 821 820 818 817 815 814
852 853 854 855 856 856 857 858 858 858 859 859 859 860 860 860 860 860 861 861 861 861 860 860 860 860 859 858 858 857 858 857 857 856 856 856 856 856 855 855 854 854 853 852 852 852 852 852 851 851 850 849 849 848 848 847 847 846 845 844 844 842 841 841 839 839 838 836 835 833 832 830 828 827 826 824 823 822 821 820 819 818 816 815 813
851 852 853 854 855 856 856 857 857 858 858 859 859 859 859 859 860 860 860 860 860 860 860 860 860 859 859 858 858 858 858 858 857 857 856 856 856 856 856 855 855 854 853 853 852 852 852 851 851 850 850 849 848 848 847 847 846 846 845 844 843 842 841 840 839 838 837 836 834 833 831 829 827 826 824 823 822 821 820 819 818 817 816 815 813
850 851 852 853 853 854 855 856 857 857 858 858 858 858 859 859 859 859 860 860 860 860 860 860 859 859 859 858 858 858 857 857 857 857 856 856 856 856 856 855 855 854 854 853 852 852 851 851 850 850 849 849 848 848 847 847 846 845 844 843 842 841 840 839 838 837 836 835 834 832 830 828 827 825 824 822 821 820 819 818 817 817 815 814 813
849 849 850 851 852 853 854 855 856 856 857 857 857 858 858 858 858 859 859 859 859 859 859 859 859 859 858 858 858 857 857 857 857 856 856 856 856 855 855 855 855 854 853 853 852 852 851 851 850 850 849 849 848 848 847 846 846 845 844 843 842 841 840 839 838 837 836 834 833 832 830 828 827 825 823 822 821 820 819 817 816 815 815 813 812
848 849 850 851 851 852 853 854 855 855 856 856 857 857 857 857 857 858 858 858 858 858 859 858 858 858 858 858 857 857 857 856 856 856 856 856 855 855 855 855 856 855 853 853 852 852 851 851 850 850 849 849 848 847 847 846 845 844 843 842 841 840 839 838 837 836 835 834 832 831 829 828 826 825 823 822 820 819 817 816 815 814 813 812 811
847 848 849 850 850 852 852 853 854 854 855 855 856 856 856 857 857 857 857 857 858 858 858 858 857 858 857 857 857 857 856 856 856 856 855 855 855 855 855 855 857 858 856 855 853 852 852 851 850 850 849 849 848 847 846 845 845 844 843 842 841 839 838 837 836 835 834 833 832 830 829 827 826 824 823 821 819 818 816 815 814 813 812 811 810
846 847 848 849 849 850 851 852 853 853 854 854 855 855 856 856 856 856 856 857 857 857 857 857 857 857 857 857 856 856 856 856 856 855 855 855 855 855 855 855 856 857 858 858 856 852 852 852 851 850 849 849 848 847 846 845 844 843 842 841 840 839 838 837 836 835 834 833 831 830 828 827 826 824 823 821 819 818 816 815 814 812 811 810 809
845 846 847 847 848 849 850 851 851 852 853 853 854 855 855 855 855 855 856 856 856 856 856 856 856 856 856 856 856 855 855 855 855 855 855 855 855 855 855 855 855 855 856 858 856 853 851 852 851 850 849 848 848 846 846 845 844 843 842 841 840 838 837 836 835 834 833 832 831 829 828 827 825 824 822 820 819 817 816 814 813 812 810 809 808
844 845 846 846 847 848 848 849 850 851 851 852 853 853 854 854 854 855 855 855 855 855 855 855 855 855 855 855 855 855 855 855 855 855 855 855 855 854 854 854 854 854 853 855 856 853 851 851 850 850 849 848 847 846 845 844 843 842 841 840 839 838 837 836 835 834 832 831 830 829 828 827 825 823 821 819 818 816 815 813 812 811 809 808 807
842 843 844 845 845 846 847 848 848 849 850 850 851 852 852 853 853 853 854 854 854 854 854 854 854 855 854 854 854 854 854 854 854 855 855 854 854 854 854 853 853 853 853 853 854 852 851 850 850 849 849 848 847 846 845 844 843 842 841 840 838 837 836 835 834 833 832 831 830 829 828 826 824 822 820 818 816 815 813 812 811 809 808 807 806
840 841 842 843 844 845 845 846 847 847 848 849 850 850 851 851 851 852 852 853 853 853 853 854 853 854 854 853 853 853 853 853 853 854 853 854 853 853 853 853 852 852 852 852 852 851 850 850 849 849 848 847 846 845 844 843 842 841 840 839 838 837 836 835 834 834 833 831 830 829 828 826 824 821 819 817 815 813 812 811 809 808 807 806 804
838 839 840 841 842 843 844 844 845 846 846 847 848 848 849 849 850 850 851 851 851 852 852 852 852 853 853 853 853 853 853 852 852 852 852 852 852 852 852 852 851 851 851 851 851 850 849 849 848 848 847 847 846 845 844 843 842 841 840 839 838 837 836 835 834 833 832 831 830 829 827 825 823 821 818 816 815 813 811 810 808 807 806 805 803
837 838 839 839 840 841 842 843 843 844 845 845 846 847 847 848 848 848 849 849 850 850 850 851 851 852 852 852 852 852 852 852 851 851 851 851 851 851 851 851 851 851 851 851 850 850 849 848 848 847 847 846 846 845 844 843 842 841 840 839 838 837 836 835 834 833 832 831 830 828 827 825 823 821 818 817 815 813 811 809 808 806 805 804 803
835 836 837 838 839 839 840 841 841 842 843 844 844 845 845 846 846 847 847 848 848 848 849 849 849 850 850 850 850 850 851 851 851 851 850 850 850 850 850 850 850 850 850 850 849 849 848 848 847 847 846 846 845 844 843 842 841 840 839 838 837 837 836 835 834 832 831 830 829 828 826 824 822 820 818 817 815 813 811 809 808 806 804 803 802
834 835 835 836 837 838 838 839 840 840 841 842 843 843 844 844 845 845 846 846 847 847 847 847 848 848 848 848 849 849 849 849 849 850 850 850 849 849 849 849 849 849 849 849 848 848 848 847 847 846 846 845 844 843 842 841 840 839 838 838 837 836 835 834 833 832 831 830 828 827 826 824 822 820 818 817 815 813 812 810 808 806 804 803 801
832 833 834 834 835 836 836 837 838 839 839 840 841 841 842 843 843 844 844 845 845 845 846 846 846 846 847 847 847 847 848 848 848 848 848 849 849 848 848 847 847 847 847 847 847 847 847 846 846 845 845 844 843 842 842 841 840 838 837 836 836 835 834 833 832 831 830 829 828 827 825 823 822 820 818 817 815 813 811 809 808 806 804 803 801
830 831 832 833 833 834 834 835 836 837 838 838 839 840 841 841 841 842 842 843 843 844 844 844 844 845 845 845 846 846 846 846 846 847 847 847 847 847 847 847 847 846 846 846 846 846 845 845 845 844 843 843 842 841 841 840 839 838 837 835 834 833 833 832 831 829 829 828 827 826 825 823 821 820 818 817 815 813 811 809 807 806 804 803 801
828 829 830 831 831 832 833 833 834 835 836 837 837 838 839 840 840 840 841 841 842 842 842 842 843 843 843 844 844 844 844 845 845 845 845 845 845 845 845 845 845 845 845 845 845 845 844 844 843 843 842 842 841 840 840 839 838 837 837 835 833 832 832 831 830 829 828 827 825 824 824 822 820 819 817 816 814 813 811 809 807 805 804 802 801
826 827 828 829 830 830 831 832 833 834 834 835 836 836 837 838 838 839 839 840 840 840 841 841 841 841 842 842 842 842 843 843 843 843 843 843 843 843 843 844 844 844 844 844 844 843 843 843 842 842 841 841 840 839 839 838 838 837 836 835 833 832 831 829 829 829 828 826 824 823 823 821 819 818 816 815 814 812 810 808 806 805 803 802 801
824 825 826 827 828 829 829 830 831 832 832 833 834 835 836 836 837 837 838 838 838 839 839 839 840 840 840 840 840 841 841 841 841 841 841 842 841 841 841 842 842 842 842 842 842 842 842 842 841 841 840 840 839 839 838 838 837 836 835 834 833 831 830 828 827 828 827 826 824 822 822 821 819 817 816 815 813 812 810 808 807 805 804 802 801
822 823 824 825 826 827 828 828 829 829 830 831 832 833 834 834 835 835 836 836 836 837 837 837 838 838 838 838 838 838 839 839 839 840 840 840 840 839 840 840 840 840 840 840 840 840 841 840 840 840 839 839 839 838 838 837 836 835 834 834 833 831 830 828 827 826 826 826 824 821 821 820 819 817 816 815 813 812 810 809 807 806 804 803 801
820 821 822 823 823 824 825 826 826 827 828 829 830 831 831 832 833 833 834 834 834 835 835 835 836 836 836 836 836 836 837 837 837 838 838 838 838 838 838 838 838 838 838 838 838 839 839 839 839 839 839 838 838 837 837 836 835 834 834 833 833 832 831 830 828 826 825 825 824 822 820 820 819 817 816 814 813 811 810 809 808 806 805 803 802
818 818 819 819 820 821 822 823 823 824 825 826 827 828 829 829 830 831 831 832 832 832 833 833 834 834 834 834 834 835 835 835 835 835 836 836 836 836 836 836 836 836 836 836 837 837 837 837 837 837 838 838 838 837 836 835 834 834 833 832 832 832 831 830 828 827 825 824 823 822 820 819 819 817 815 814 813 811 811 810 808 807 805 804 802
816 816 817 818 818 819 820 821 821 822 823 824 825 826 827 827 828 828 829 829 830 830 830 831 831 831 832 832 832 833 833 833 833 833 834 834 834 835 835 835 835 835 835 835 835 835 835 835 836 836 836 837 838 837 836 835 834 833 832 832 831 831 830 829 828 827 825 824 823 821 820 819 819 817 815 814 813 812 811 810 809 807 805 804 802
815 815 815 816 817 818 818 819 820 820 821 822 823 824 825 825 826 826 827 827 827 827 828 828 829 829 830 830 830 831 831 831 831 832 832 832 833 833 833 833 833 833 834 834 834 834 834 834 835 835 835 836 836 836 835 834 833 832 832 831 830 830 829 828 828 826 825 824 823 822 820 819 818 817 815 814 813 812 811 811 809 807 806 804 802
816 815 813 813 814 815 816 816 817 818 818 820 821 821 822 823 823 824 824 824 824 825 825 825 826 826 827 828 828 829 829 830 830 830 830 831 831 831 832 832 832 832 832 833 833 833 833 833 833 834 834 835 835 834 833 832 832 831 831 830 830 829 828 828 827 826 824 824 823 822 821 819 818 817 816 814 813 812 812 811 809 808 806 804 802
816 814 812 811 811 812 813 814 814 815 815 817 818 819 820 820 821 821 821 821 822 822 822 823 823 824 824 825 826 826 827 828 828 828 829 829 830 830 830 830 830 830 831 831 831 831 832 832 832 832 833 834 834 833 831 831 831 830 830 829 829 828 828 827 827 826 825 824 823 822 820 819 818 817 815 814 813 813 812 812 810 808 806 804 803
813 812 810 810 810 811 812 812 813 813 813 814 815 816 817 818 818 819 819 819 819 819 819 820 821 822 823 823 824 824 825 826 826 826 827 827 828 829 829 829 829 829 829 829 830 830 831 831 831 832 832 832 832 831 830 830 830 829 829 828 828 828 828 828 827 826 825 825 823 822 820 819 818 817 815 813 813 813 813 812 810 808 806 805 803
810 809 809 808 808 808 809 810 810 811 812 813 814 815 815 816 816 816 816 816 816 816 816 817 818 820 821 822 822 823 824 824 824 824 824 825 826 827 827 828 828 827 827 827 828 828 829 829 830 830 830 830 830 830 830 830 829 829 828 828 828 828 828 827 827 826 825 826 824 821 820 819 818 817 816 814 813 813 813 812 811 809 807 805 804